Regional Weather Roundup
Issued by NWS Burlington, VT

Home | Current Version | Previous Version | Text Only | Print | Product List | Glossary On
Versions: 1 2 3 4 5 6 7 8 9 10 11 12 13 14 15 16 17 18 19 20 21 22 23 24 25 26 27 28 29 30 31 32 33 34 35 36 37 38 39 40 41 42 43 44 45 46 47 48 49 50
000
ASUS41 KBTV 230730
RWRBTV
VERMONT REGIONAL WEATHER ROUNDUP
NATIONAL WEATHER SERVICE BURLINGTON VT
300 AM EDT SAT SEP 23 2017

NOTE: "FAIR" INDICATES FEW OR NO CLOUDS BELOW 12,000 FEET WITH NO
SIGNIFICANT WEATHER AND/OR OBSTRUCTIONS TO VISIBILITY.

* THESE REPORTS ARE NOT UNDER NWS QUALITY CONTROL AND/OR DO NOT
  REPORT WEATHER SUCH AS PRECIPITATION AND FOG.

VTZ001>019-230800-
_____VERMONT_____


CITY           SKY/WX    TMP DP  RH WIND       PRES   REMARKS
BURLINGTON     CLEAR     56  53  90 E5        30.05F
MONTPELIER     PTCLDY    48  48 100 CALM      30.11F FOG
MORRISVILLE    PTCLDY    44  44 100 CALM      30.10F
ST. JOHNSBURY*   N/A     49  48  97 MISG      30.07F
LYNDONVILLE*   FAIR      48  47  97 CALM      30.10F
MIDDLEBURY*    FAIR      50  49  94 N7        30.05F
RUTLAND*       CLEAR     56  52  86 SE8       30.07F
SPRINGFIELD    CLEAR     54  52  93 CALM      30.08F
HIGHGATE*      FAIR      52  51  97 CALM      30.05F
NEWPORT*       FAIR      46  45  99 CALM      30.09S
BENNINGTON     CLEAR     55  52  89 CALM      30.06F
ISLAND POND*     N/A     39 N/A N/A CALM        N/A
GALLUP MILLS*    N/A     43 N/A N/A MISG        N/A
UNION VILLAGE*   N/A     50 N/A N/A MISG        N/A
MT. MANSFIELD*   N/A     64 N/A N/A NW9         N/A

_____LAKE CHAMPLAIN_____


CITY           SKY/WX    TMP DP  RH WIND       PRES   REMARKS
BURTON ISLAND*   N/A     63  57  82 S5          N/A
COLCHESTER RF*   N/A     63  57  82 NE6         N/A
DIAMOND ISL*     N/A     59  55  88 SE3         N/A

$$

NYZ007-026>031-035-052-083-087-230800-
_____NORTHERN NEW YORK_____


CITY           SKY/WX    TMP DP  RH WIND       PRES   REMARKS
PLATTSBURGH    CLEAR     52  50  93 SW3       30.05F
SARANAC LAKE   CLEAR     43  41  93 CALM      30.09F
MASSENA        CLEAR     54  53  97 CALM      30.05F
OGDENSBURG*    FAIR      55  54  97 CALM      30.04F
POTSDAM*       CLEAR    N/A N/A N/A CALM      30.04F
STARK FALLS*     N/A     55 N/A N/A SE1         N/A
WATERTOWN      CLEAR     52  52 100 E3        30.05F FOG
FT DRUM        CLEAR     58  54  88 SE6       30.05F
ALBANY         CLEAR     59  50  72 N5        30.05F
GLENS FALLS    CLEAR     51  48  89 CALM      30.05F

$$
NHZ002-005-011-230800-
_____NEW HAMPSHIRE_____


CITY           SKY/WX    TMP DP  RH WIND       PRES   REMARKS
LEBANON        CLEAR     54  53  97 CALM      30.07F
KEENE          CLOUDY    63  55  75 CALM      30.06F
MT WASHINGTON  PTCLDY    54  39  58 N15         N/A
PLYMOUTH       FAIR      49  47  96 CALM      30.06F
WHITEFIELD     CLEAR     44  40  85 CALM      30.09F

$$

_____REGIONAL QUEBEC LOCATIONS_____


CITY           SKY/WX    TMP DP  RH WIND       PRES   REMARKS
MONTREAL       CLEAR     63  61  94 S5        30.02F
QUEBEC CITY    MOCLDY    54  50  87 CALM      30.02F
SHERBROOKE     CLEAR     46  45  93 E5        30.07F

_____REGIONAL ONTARIO LOCATIONS_____


CITY           SKY/WX    TMP DP  RH WIND       PRES   REMARKS
OTTAWA         CLEAR     61  55  82 SW3       30.05R

______KEY______
VSB  - VISIBILITY IN MILES
WCI  - WIND CHILL INDEX
HX   - HEAT INDEX
$$
NNNN




USA.gov is the U.S. government's official web portal to all federal, state and local government web resources and services.